sat.trackr.live / text

‹ back to catalog

TDRS 8

NORAD 26388 · 2000-034A

PAYLOAD ACTIVE UNKNOWN

§ Identity

Operator
Country
US
Launch date
2000-06-30
Launch site
AFETR
Launch vehicle
Mass (kg)
RCS (m²)
26.77

Purposes: comms

External: N2YO · Heavens-Above · Gunter

§ Orbital elements

Epoch: 2026-09-19T20:52:57.117792Z

Period
1,436.12 min
Inclination
12.8315°
Eccentricity
0.0001137
Mean motion
1.00269952 rev/d
Perigee alt
35,782.3 km
Apogee alt
35,791.9 km
Semi-major
42,165.2 km
B*
0.0000e+0
RAAN
30.4998°
Arg perigee
121.7220°
Mean anomaly
244.5790°
Rev number
9,613

§ Raw data

TDRS 81 26388U 00034A   26262.87010553 -.00000194  00000+0  00000+0 0  99942 26388  12.8315  30.4998 0001137 121.7220 244.5790  1.00269952 96133

JSON: /api/v1/satellites/26388 · /tle

For live sub-satellite position, see the globe view (requires WebGL).

§ Visibility from observer

Set your observer location to see the next 7 days of passes ≥ 10°. The values pass through the URL so the page stays shareable.

No JS? Fill the form by hand. The geolocation button needs JavaScript.